Regional Weather Roundup
Issued by NWS Kansas City/Pleasant Hill, MO

Home | Current Version | Previous Version | Graphics & Text | Print | Product List | Glossary Off
Versions: 1 2 3 4 5 6 7 8 9 10 11 12 13 14 15 16 17 18 19 20 21 22 23 24 25 26 27 28 29 30 31 32 33 34 35 36 37 38 39 40 41 42 43 44 45 46 47 48 49 50

837
ASUS43 KEAX 220210
RWREAX

WEATHER ROUNDUP FOR EASTERN KANSAS AND NORTHWEST MISSOURI
NATIONAL WEATHER SERVICE KANSAS CITY/PLEASANT HILL MO
800 PM CST TUE FEB 21 2017

KSZ040-057-103>105-MOZ028-029-037-043-220300-
...KANSAS CITY METROPOLITAN AREA...

CITY           SKY/WX    TMP DP  RH WIND       PRES   REMARKS
K.C. INTL      CLEAR     59  30  33 SE5       29.88F
K.C. DOWNTOWN  CLEAR     59  35  40 CALM      29.88F
LEES SUMMIT    CLEAR     62  45  53 SE6       29.90S
OLATHE - IXD   CLEAR     53  36  52 CALM      29.90F
OLATHE - OJC   CLEAR     55  39  54 CALM      29.89F
LAWRENCE       CLEAR     45  33  63 CALM      29.89F

$$

MOZ001>008-011>017-020>025-030>033-038>040-044>046-053-054-220300-
...NORTHERN AND CENTRAL MISSOURI...

CITY           SKY/WX    TMP DP  RH WIND       PRES   REMARKS
ST. JOSEPH     CLEAR     49  38  65 W3        29.88S
WARRENSBURG    CLEAR     59  46  63 SE3       29.89F
WHITEMAN AFB   PTCLDY    58  51  79 CALM      29.89F
CLINTON        PTCLDY    54  46  76 CALM      29.91S
SEDALIA        CLEAR     60  49  66 E3        29.91F
WARSAW         NOT AVBL
CHILLICOTHE      N/A     49  39  68 CALM      29.89F
KIRKSVILLE     CLEAR     53  48  83 S9        29.90R

$$

MOZ041-047>049-056>058-063>065-088>090-097-220300-
...EASTERN AND SOUTHERN MISSOURI...

CITY           SKY/WX    TMP DP  RH WIND       PRES   REMARKS
ST. LOUIS INTL CLOUDY    60  56  86 CALM      29.92S
SPIRIT OF STL  CLOUDY    56  56 100 CALM      29.92R FOG
COLUMBIA       CLEAR     60  58  92 SE5       29.91F
JEFFERSON CITY PTCLDY    61  57  87 E6        29.91S
ROLLA          CLOUDY    56  56 100 N3        29.92S FOG
OSAGE BEACH    CLEAR     59  57  93 SE5       29.93S
SPRINGFIELD    CLOUDY    58  56  93 SE3       29.92R
BRANSON        CLOUDY    57  57 100 CALM      29.93R
JOPLIN         CLEAR     58  51  78 CALM      29.91F
WEST PLAINS    CLOUDY    57  54  89 E5        29.91F

$$

IAZ060-094-KSZ022-034>040-054-083-096-NEZ052-066-093-220300-
...KANSAS...SOUTHEAST NEBRASKA AND IOWA...

CITY           SKY/WX    TMP DP  RH WIND       PRES   REMARKS
TOPEKA         CLEAR     50  32  50 CALM      29.90R
MANHATTAN      CLEAR     52  34  50 CALM      29.89S
EMPORIA        CLEAR     54  31  41 SW3       29.92R
CHANUTE        CLEAR     49  41  74 CALM      29.90F
WICHITA        CLEAR     52  39  61 S7        29.91F
OMAHA          CLEAR     58  38  47 S13       29.79F
LINCOLN        CLEAR     54  30  40 S12       29.81S
FALLS CITY     CLEAR     57  35  43 S9        29.86S
LAMONI         CLEAR     53  33  46 S9        29.86F
DES MOINES     CLEAR     55  33  43 S7        29.83S

$$





USA.gov is the U.S. government's official web portal to all federal, state and local government web resources and services.